Time,TemperatureF,DewpointF,PressureIn,WindDirection,WindDirectionDegrees,WindSpeedMPH,WindSpeedGustMPH,Humidity,HourlyPrecipIn,Conditions,Clouds,dailyrainin,SoftwareType,DateUTC
2013-06-02 00:04:00,78.3,73.6,29.86,SE,138,3.3,8.8,85,0.00,,,0.00,WUHU216DAVISVP2,2013-06-02 05:04:00,
2013-06-02 00:34:00,78.1,73.4,29.87,SE,143,1.1,7.0,85,0.00,,,0.00,WUHU216DAVISVP2,2013-06-02 05:34:00,
2013-06-02 01:04:00,78.0,73.6,29.86,SSE,147,0.0,5.0,86,0.00,,,0.00,WUHU216DAVISVP2,2013-06-02 06:04:00,
2013-06-02 01:34:00,77.9,73.5,29.86,SE,139,0.0,2.2,86,0.00,,,0.00,WUHU216DAVISVP2,2013-06-02 06:34:00,
2013-06-02 02:04:00,77.6,73.5,29.87,SE,142,0.0,2.0,87,0.00,,,0.00,WUHU216DAVISVP2,2013-06-02 07:04:00,
2013-06-02 02:35:00,76.9,73.2,29.85,SE,130,3.3,6.0,88,0.00,,,0.00,WUHU216DAVISVP2,2013-06-02 07:35:00,
2013-06-02 03:05:00,76.8,73.4,29.86,ESE,113,0.0,1.1,89,0.00,,,0.00,WUHU216DAVISVP2,2013-06-02 08:05:00,
2013-06-02 03:35:00,77.0,73.6,29.86,SE,136,0.0,4.0,89,0.00,,,0.00,WUHU216DAVISVP2,2013-06-02 08:35:00,
2013-06-02 04:05:00,77.1,73.7,29.88,SE,138,0.0,1.0,89,0.00,,,0.00,WUHU216DAVISVP2,2013-06-02 09:05:00,
2013-06-02 04:35:00,77.1,73.7,29.87,SSE,165,0.0,3.0,89,0.00,,,0.00,WUHU216DAVISVP2,2013-06-02 09:35:00,
2013-06-02 05:05:00,77.1,73.7,29.89,SSE,165,0.0,0.0,89,0.00,,,0.00,WUHU216DAVISVP2,2013-06-02 10:05:00,
2013-06-02 05:35:00,77.1,74.0,29.90,NE,43,1.1,3.3,90,0.00,,,0.00,WUHU216DAVISVP2,2013-06-02 10:35:00,
2013-06-02 06:05:00,75.1,68.4,29.93,NE,36,16.5,24.2,79,0.01,,,0.01,WUHU216DAVISVP2,2013-06-02 11:05:00,
2013-06-02 06:35:00,66.5,64.5,29.93,NNE,20,13.2,19.0,93,0.29,,,0.29,WUHU216DAVISVP2,2013-06-02 11:35:00,
2013-06-02 07:05:00,66.7,64.7,29.91,ESE,104,0.0,18.0,93,0.58,,,0.61,WUHU216DAVISVP2,2013-06-02 12:05:00,
2013-06-02 07:35:00,66.2,64.2,29.90,NNE,12,0.0,4.0,93,0.34,,,0.63,WUHU216DAVISVP2,2013-06-02 12:35:00,
2013-06-02 08:05:00,67.0,65.3,29.98,West,261,1.1,7.0,94,0.03,,,0.64,WUHU216DAVISVP2,2013-06-02 13:05:00,
2013-06-02 08:35:00,67.8,66.1,29.98,NNE,12,0.0,4.4,94,0.01,,,0.64,WUHU216DAVISVP2,2013-06-02 13:35:00,
2013-06-02 09:05:00,68.6,66.9,30.00,North,355,5.5,7.7,94,0.00,,,0.64,WUHU216DAVISVP2,2013-06-02 14:05:00,
2013-06-02 09:35:00,69.3,67.3,30.00,North,2,2.2,7.0,93,0.00,,,0.64,WUHU216DAVISVP2,2013-06-02 14:35:00,
2013-06-02 10:05:00,69.9,67.8,30.00,NW,313,4.4,6.0,93,0.00,,,0.64,WUHU216DAVISVP2,2013-06-02 15:05:00,
2013-06-02 10:35:00,70.6,68.2,30.00,NE,36,5.5,8.8,92,0.00,,,0.64,WUHU216DAVISVP2,2013-06-02 15:35:00,
2013-06-02 11:05:00,71.6,68.9,30.00,NNE,25,9.9,11.0,91,0.00,,,0.64,WUHU216DAVISVP2,2013-06-02 16:05:00,
2013-06-02 11:35:00,73.2,69.5,29.99,North,355,6.6,11.0,88,0.00,,,0.64,WUHU216DAVISVP2,2013-06-02 16:35:00,
2013-06-02 12:05:00,75.4,70.0,29.98,NE,40,11.0,13.2,83,0.00,,,0.64,WUHU216DAVISVP2,2013-06-02 17:05:00,
2013-06-02 12:35:00,77.3,69.4,29.98,NNE,18,7.7,15.4,76,0.00,,,0.64,WUHU216DAVISVP2,2013-06-02 17:35:00,
2013-06-02 13:05:00,79.2,68.9,29.98,NNE,16,3.3,13.0,70,0.00,,,0.64,WUHU216DAVISVP2,2013-06-02 18:05:00,
2013-06-02 13:35:00,81.6,71.2,29.97,North,351,6.6,8.0,70,0.00,,,0.64,WUHU216DAVISVP2,2013-06-02 18:35:00,
2013-06-02 14:05:00,83.0,70.9,29.96,NE,47,3.3,7.7,66,0.00,,,0.64,WUHU216DAVISVP2,2013-06-02 19:05:00,
2013-06-02 14:35:00,84.1,72.4,29.95,East,99,1.1,8.8,67,0.00,,,0.64,WUHU216DAVISVP2,2013-06-02 19:35:00,
2013-06-02 15:05:00,84.8,71.7,29.94,ESE,109,0.0,10.0,64,0.00,,,0.64,WUHU216DAVISVP2,2013-06-02 20:05:00,
2013-06-02 15:35:00,85.2,71.6,29.92,NNE,33,3.3,7.7,63,0.00,,,0.64,WUHU216DAVISVP2,2013-06-02 20:35:00,
2013-06-02 16:05:00,87.1,69.4,29.91,NE,44,4.4,12.1,55,0.00,,,0.64,WUHU216DAVISVP2,2013-06-02 21:05:00,
2013-06-02 16:35:00,87.4,67.4,29.89,NE,48,1.1,11.0,51,0.00,,,0.64,WUHU216DAVISVP2,2013-06-02 21:35:00,
2013-06-02 17:05:00,88.8,69.3,29.88,North,2,3.3,11.0,52,0.00,,,0.64,WUHU216DAVISVP2,2013-06-02 22:05:00,
2013-06-02 17:35:00,87.3,69.0,29.87,NE,39,3.3,8.0,54,0.00,,,0.64,WUHU216DAVISVP2,2013-06-02 22:35:00,
2013-06-02 18:05:00,86.2,65.7,29.86,NNE,32,1.1,9.0,50,0.00,,,0.64,WUHU216DAVISVP2,2013-06-02 23:05:00,
2013-06-02 18:35:00,85.6,67.4,29.86,NE,36,0.0,7.0,54,0.00,,,0.64,WUHU216DAVISVP2,2013-06-02 23:35:00,
2013-06-02 19:05:00,86.3,68.1,29.85,NE,34,7.7,9.9,54,0.00,,,0.64,WUHU216DAVISVP2,2013-06-03 00:05:00,
2013-06-02 19:35:00,84.0,65.9,29.85,NNE,31,5.5,7.7,54,0.00,,,0.64,WUHU216DAVISVP2,2013-06-03 00:35:00,
2013-06-02 20:05:00,80.5,66.2,29.86,NE,40,1.1,5.0,61,0.00,,,0.64,WUHU216DAVISVP2,2013-06-03 01:05:00,
2013-06-02 20:35:00,77.4,64.6,29.86,NE,49,0.0,3.3,64,0.00,,,0.64,WUHU216DAVISVP2,2013-06-03 01:35:00,
2013-06-02 21:05:00,76.0,64.6,29.86,NNE,33,0.0,2.0,67,0.00,,,0.64,WUHU216DAVISVP2,2013-06-03 02:05:00,
2013-06-02 21:35:00,75.0,64.5,29.87,NE,35,0.0,2.0,69,0.00,,,0.64,WUHU216DAVISVP2,2013-06-03 02:35:00,
2013-06-02 22:05:00,73.7,64.4,29.86,NE,35,0.0,2.0,72,0.00,,,0.64,WUHU216DAVISVP2,2013-06-03 03:05:00,
2013-06-02 22:35:00,73.3,64.0,29.87,NE,35,0.0,1.0,72,0.00,,,0.64,WUHU216DAVISVP2,2013-06-03 03:35:00,
2013-06-02 23:05:00,72.7,64.2,29.88,NE,35,0.0,1.0,74,0.00,,,0.64,WUHU216DAVISVP2,2013-06-03 04:05:00,
2013-06-02 23:35:00,71.1,64.1,29.91,NE,35,0.0,0.0,78,0.00,,,0.64,WUHU216DAVISVP2,2013-06-03 04:35:00,